Regional Weather Roundup
Issued by NWS Lake Charles, LA

Home | Current Version | Previous Version | Text Only | Print | Product List | Glossary On
Versions: 1 2 3 4 5 6 7 8 9 10 11 12 13 14 15 16 17 18 19 20 21 22 23 24 25 26 27
000
ASUS44 KLCH 150411
RWRLCH
REGIONAL WEATHER ROUNDUP
NATIONAL WEATHER SERVICE LAKE CHARLES LA
1000 PM CST THU DEC 14 2017

Note: "fair" indicates few or no clouds below 12,000 feet with no
significant weather and/or obstructions to visibility.


ACROSS SOUTHEAST TEXAS

CITY           SKY/WX    TMP DP  RH WIND       PRES   REMARKS
BEAUMONT       CLOUDY    53  47  79 N6        30.07R
BEAUMONT CITY  FAIR      52  46  79 N6        30.08R
ORANGE         CLOUDY    52  49  88 CALM      30.08R
JASPER         CLOUDY    47  45  91 CALM      30.11R
$$

ACROSS CENTRAL LOUISIANA

CITY           SKY/WX    TMP DP  RH WIND       PRES   REMARKS
LEESVILLE      PTCLDY    45  43  93 N3        30.07R
FULLERTON      FAIR      45  43  93 CALM      30.05R
ALEXANDRIA INT CLOUDY    44  41  89 CALM      30.07R
ESLER FIELD    PTCLDY    40  40 100 CALM      30.08R FOG
DERIDDER       FAIR      47  45  91 CALM      30.09S
OAKDALE        CLOUDY    45  43  93 NW3       30.07S
OPELOUSAS      FAIR      50  43  75 N7        30.07R
$$

ACROSS SOUTHWEST AND SOUTH CENTRAL LOUISIANA

CITY           SKY/WX    TMP DP  RH WIND       PRES   REMARKS
SULPHUR        MOCLDY    54  46  75 CALM      30.08R
LAKE CHARLES   MOCLDY    54  47  77 N6        30.07R
CHENNAULT INT  CLOUDY    53  46  76 N6        30.07R
CAMERON PHI    NOT AVBL
DEQUINCY       FAIR      49  44  85 N3        30.08R
JENNINGS       FAIR      54  48  81 N3        30.06R
LAFAYETTE      MOCLDY    53  49  86 N5        30.05R
NEW IBERIA     CLOUDY    52  49  89 CALM      30.05R
ABBEVILLE      CLOUDY    50  50 100 CALM      30.04S
PATTERSON      CLOUDY    52  51  97 CALM      30.05R
SALT POINT       N/A     54  51  90 CALM      30.03R
$$

SELECTED SITES ACROSS THE REGION

CITY           SKY/WX    TMP DP  RH WIND       PRES   REMARKS
HOUSTON BUSH   CLOUDY    55  45  68 N8        30.09R
HOUSTON HOBBY  MOCLDY    56  44  64 N9        30.08R
GALVESTON      MOCLDY    59  50  72 N13       30.07R
COLLEGE STAT   MOCLDY    54  32  43 N15       30.13R
CONROE         PTCLDY    46  45  96 CALM      30.09R
HUNTSVILLE     CLOUDY    50  38  63 N8        30.11R
LUFKIN         PTCLDY    48  38  68 N5        30.12R
SHREVEPORT     MOCLDY    49  31  49 N8        30.11R
MONROE         CLOUDY    44  34  67 NE5       30.11R
NATCHEZ MS     PTCLDY    41  39  93 CALM      30.09R
BATON ROUGE    PTCLDY    47  44  90 N3        30.05R
N.O. INTL ARPT CLOUDY    54  50  86 CALM      30.02S
SLIDELL        CLOUDY    48  45  89 CALM      30.04R
$$

MARINE REPORTS

STATION/POSITION TIME  SKY/WX   TEMP    WIND        PRES    VSBY
                                AIR SEA DIR/SP/G
                 (UTC)          (F)     (DEG/KT/KT) (MB)    (MI)
BUOY 30 S HIGH I 0250            60 60  360/  6/  6 1017.1
WVE H/P(F/S)=  0

SEA RIM ST PARK  0400            54     360/  7/  8 1018.4R
PORT ARTHUR      0348            56 58   10/  7/ 10 1018.1R
SABINE PASS N    0348            56 62  360/  5/  7 1019.2R
TEXAS POINT      NOT AVBL
CALCASIEU PASS   0348            57 60   10/  7/  8 1016.3R
LK CHARLES BEACH 0348            54 58              1017.5R
MARSH ISLAND     0300            59                   N/A
FRESH WATER LOCK 0348            55 57   40/  2/  3 1017.0R
AMERADA PASS     0348            55 54     CALM     1017.1R
$$




USA.gov is the U.S. government's official web portal to all federal, state and local government web resources and services.